Regional Weather Roundup
Issued by NWS

Home | Current Version | Previous Version | Graphics & Text | Print | Product List | Glossary On
Versions: 1 2 3 4 5 6 7 8 9 10 11 12 13 14 15 16 17 18 19 20 21 22 23 24 25 26 27 28 29 30 31 32 33 34 35 36 37 38 39 40 41 42 43 44 45 46 47 48 49 50
000
ASUS43 KDMX 112107
RWRIA

WEATHER ROUNDUP FOR IOWA
NATIONAL WEATHER SERVICE DES MOINES IA
400 PM CDT FRI JUL 11 2014

NOTE: "FAIR" INDICATES FEW OR NO CLOUDS BELOW 12,000 FEET WITH NO
SIGNIFICANT WEATHER AND/OR OBSTRUCTIONS TO VISIBILITY.

* - THESE STATIONS ARE NOT NWS STATIONS...THUS NOT UNDER NWS
QUALITY CONTROL.  THEY ALSO DO NOT REPORT WEATHER SUCH
AS PRECIPITATION OR FOG.

IAZ001>003-012>014-020>022-031>034-043>046-112200-
   NORTHWEST IOWA

CITY           SKY/WX    TMP DP  RH WIND       PRES   REMARKS
CARROLL *      CLOUDY    75  70  83 SE3       30.01S
CHEROKEE *     PTSUNNY   79  72  78 SW8       29.99S HX  82
DENISON *      CLOUDY    75  72  88 CALM      30.00R
LE MARS *      PTSUNNY   77  70  78 S9        30.00R
ORANGE CITY *  MOSUNNY   79  70  73 S7        30.00R HX  81
SHELDON *      MOSUNNY   77  70  78 VRB7      29.99R
SIOUX CITY     CLOUDY    76  70  82 SE7       29.98S
SPENCER        MOSUNNY   78  68  71 VRB5      29.99S HX  80
STORM LAKE *   MOSUNNY   77  72  83 S7        30.01R
$$

IAZ055>058-069>071-079>083-090>094-112200-
   SOUTHWEST IOWA

CITY           SKY/WX    TMP DP  RH WIND       PRES   REMARKS
ATLANTIC *     PTSUNNY   75  72  88 SE6       29.98F
AUDUBON *      MOSUNNY   75  72  88 SE3       30.02S
CLARINDA *     SUNNY     82  73  74 S9        30.00F HX  88
COUNCIL BLFS * SUNNY     77  75  94 SE5       29.98R
CRESTON *      MOSUNNY   79  73  83 S10G16    30.02R HX  82
HARLAN  *      PTSUNNY   75  72  88 CALM      30.03R
LAMONI         CLOUDY    81  71  71 S10       30.02S HX  85
RED OAK *      MOSUNNY   81  75  83 S6        29.99S HX  86
SHENANDOAH *   SUNNY     82  75  78 S12       29.98F HX  89
$$

IAZ047>049-059>061-072>074-084-112200-
   CENTRAL IOWA

CITY           SKY/WX    TMP DP  RH WIND       PRES   REMARKS
AMES           CLOUDY    73  68  84 NW3       30.03S
ANKENY *       CLOUDY    75  70  83 NW5       30.02S
CHARITON *     SUNNY     77  72  83 S13       30.00S
DES MOINES     CLOUDY    78  71  79 NW3       30.02R HX  80
GRINNELL*      CLOUDY    73  68  83 SE9       30.01R
KNOXVILLE *    SUNNY     75  70  83 S9G17     29.99R
MARSHALLTOWN   PTSUNNY   76  68  76 S6        30.04R
PELLA *        CLOUDY    75  70  83 S13       30.00R
PERRY *        CLOUDY    73  70  88 S5        30.02S
$$

IAZ004>006-015-016-023>025-035-036-112200-
   NORTH CENTRAL IOWA

CITY           SKY/WX    TMP DP  RH WIND       PRES   REMARKS
ALGONA *       CLOUDY    81  70  69 S13       30.00S HX  84
CLARION *      CLOUDY    75  68  78 S12       30.03S
ESTHERVILLE    MOSUNNY   81  69  67 SW10      29.98S HX  84
FORT DODGE *   CLOUDY    75  68  78 S7        30.02S
MASON CITY     PTSUNNY   79  68  69 S13G22    30.03F HX  81
FOREST CITY *  PTSUNNY   79  68  69 S12G17    30.01S HX  81
IOWA FALLS *   CLOUDY    75  66  73 S10       30.05F
$$

IAZ007>011-017>019-026>030-037>042-050>054-066-112200-
   NORTHEAST IOWA

CITY           SKY/WX    TMP DP  RH WIND       PRES   REMARKS
CEDAR RAPIDS   CLOUDY    75  66  73 SE9       30.02F
CHARLES CITY * PTSUNNY   75  66  73 S15       30.05S
CLINTON *      PTSUNNY   79  63  57 SE12      30.10F HX  80
DECORAH *        N/A    N/A N/A N/A MISG        N/A
DUBUQUE        CLOUDY    73  64  73 S12       30.08F
MONTICELLO *   MOSUNNY   75  68  78 SE10G16   30.05S
OELWEIN *      MOSUNNY   75  75 100 S10       30.06S
WATERLOO       PTSUNNY   78  66  66 S13G24    30.03S HX  80
$$

IAZ064-065-067-068-078-112200-
   EAST CENTRAL IOWA

CITY           SKY/WX    TMP DP  RH WIND       PRES   REMARKS
DAVENPORT      MOSUNNY   78  65  63 SE14      30.07F HX  80
IOWA CITY      LGT RAIN  76  68  76 S10       30.07R
MT. PLEASANT * CLOUDY    81  66  61 S3        30.10R HX  83
MUSCATINE *    PTSUNNY   79  66  65 S13       30.07R HX  81
QUAD CITIES    MOSUNNY   80  66  62 SE14G20   30.06F HX  82
$$

IAZ062-063-075>077-085>089-095>099-112200-
   SOUTHEAST IOWA

CITY           SKY/WX    TMP DP  RH WIND       PRES   REMARKS
BURLINGTON     CLOUDY    80  67  64 S9        30.06F HX  82
FAIRFIELD *    MOSUNNY   77  70  78 S8        30.08S
FORT MADISON * SUNNY     81  70  69 S7        30.07S HX  84
KEOKUK *       SUNNY     81  70  69 SE10      30.04F HX  84
OSKALOOSA *      N/A     73  70  88 SE15G24   29.98F
CENTERVILLE *  MOSUNNY   79  73  83 SE7       30.04F HX  82
OTTUMWA        LGT RAIN  74  70  87 SE17      29.98F
WASHINGTON *   MOSUNNY   77  70  78 S13       30.08F
$$

ABBREVIATIONS USED IN REMARKS
   TC - TEMPERATURES IN CELSIUS
  WCI - WIND CHILL INDEX
   HX - HEAT INDEX
  VSB - VISIBILITY
$$



USA.gov is the U.S. government's official web portal to all federal, state and local government web resources and services.